CYGFM01 (41887 NORAD) Tracking and Keplerian Element Data

This shows tracking and keplerian element data for the satellite.

Feedback or suggestion? Click here.




ElementValue
Catalog41887
NameCYGFM01
Epoch Orbit22699
Epoch Day20.72279016
Epoch Year2021
RAAN151.6396
Inclination34.9525
Eccentricity0.0016078
Argument of Perigee189.4047
Mean Anonmoly170.6365
Mean Motion15.14650021
Decay Rate4.92E-06
L11 41887U 16078D 21020.72279016 .00000492 00000-0 27671-4 0 9991
L22 41887 34.9525 151.6396 0016078 189.4047 170.6365 15.14650021226995

Live tracking and technical data element details for CYGFM01 (NORAD 41887). CYGFM01 can be tracked NOW for your location showing map with azimuth and elevation plus other details from your city location.

Track the satellite on the map from your city or location and see movement details for azimuth, elevation, latitude, longitude, range, height, and movement on the map or in text.







IsCatalogInMostPopularTable: catalog: 41887, numindb: 527
Update: records affected: 1



GetName: 41887 CYGFM01

Hit Count: updated at: Sat, 23 Jan 2021 05:43:31 GMT